Location: Newark
(23.3970°S, 47.6010°W)
Time: 14:11:53
(UTC+00:00)

deb Explorer IX - Pass Details

Date: 20 February 2020
Orbit: 547 x 1100 km, 38.8° (Epoch: 29 March)

Event Time Altitude Azimuth Distance (km) Brightness Sun altitude
Rises 02:04:06 0° 283° (WNW) 3,708 - -50.3°
Reaches altitude 10° 02:06:49 10° 276° (W) 2,824 - -50.6°
Maximum altitude 02:13:28 45° 205° (SSW) 1,444 - -51.4°
Drops below altitude 10° 02:20:29 10° 133° (SE) 2,965 - -52.1°
Sets 02:23:25 0° 127° (SE) 3,908 - -52.4°
